星链-2242 (STARLINK-2242 )

导读 | 星芒AI

STARLINK-2242 是 SpaceX Starlink 卫星互联网项目中的一颗低轨通信卫星。它属于 Starlink 二代卫星群,旨在提供更高速、低延迟的全球宽带服务。该卫星采用先进推进系统和激光通信技术,提升网络效率与覆盖范围。作为星座的一部分,STARLINK-2242 支持全球用户接入互联网,尤其在偏远地区发挥重要作用。其发射和运行有助于 SpaceX 实现构建全球无缝网络连接的目标。

基本信息
目录编号:
48587
目录名称:
STARLINK-2242
国际标识:
2021-041AL
轨道中心:
EARTH
卫星名称:
星链-2242
卫星全名:
星链-2242 (STARLINK-2242 )
卫星状态:
已陨落 最后检测时间 2024-01-07
发射日期:
2021-05-15 UTC
国别 :
美国 (US)
星等 :
--
轨道信息
数据来源 国际轨道数据
星历时间: 2025-01-07T10:45:21+0800
轨道信息已过期343天
半长轴: 6580.443km
偏心率: 0.000513
轨道倾角: 53.033°
近地点辐角 255.549°
升交点赤经 239.027°
平近点角 191.294°
近地点: 198.932km
远地点: 205.684km
周期: 88.541分钟
每日圈数: 16.263728
详细信息
固有亮度:
5
最大亮度:
2.5
卫星平台:
Starlink V1.0
覆盖范围:
全球
运营商:
太空探索技术公司
运营商所在国:
美国
制造商(研发单位):
太空探索技术公司
制造商所在国:
美国
使用方式:
暂无
卫星简介
星链(Starlink)计划是由太空探索技术公司(SpaceX)提出的一个巨型低轨卫星互联网星座项目,计划在2019年至2024年间在太空搭建由约1.2万颗卫星组成的“星链”网络,其中1584颗将部署在地球上空550千米处的近地轨道,并从2020年开始工作。该卫星仍在工作。